FW4559 Weather Reports


time (UTC)temp
F
wind
direction
speed
knots
gust
knots
rain 1hr
in
rain 24hr
in
rain mn
in
humidity
%
barometer
mb
20260902070028 64 204 0.0 0.0 0.00 0.01 0.00 96 1018.7
20260902065529 64 204 0.0 0.0 0.00 0.01 0.00 96 1018.6
20260902065030 64 204 0.0 0.0 0.00 0.01 0.00 96 1018.7
20260902064527 64 204 0.0 0.0 0.00 0.01 0.00 96 1018.7
20260902064027 64 204 0.0 0.0 0.00 0.01 0.00 96 1018.6
20260902063527 64 204 0.0 0.0 0.00 0.01 0.00 96 1018.6
20260902063033 64 204 0.0 0.0 0.00 0.01 0.00 96 1018.6
20260902062527 64 204 0.0 0.0 0.00 0.01 0.00 96 1018.7
20260902062026 64 204 0.0 0.0 0.00 0.01 0.00 96 1018.6
20260902061542 64 204 0.0 0.0 0.00 0.01 0.00 96 1018.7
20260902061026 64 204 0.0 0.0 0.00 0.01 0.00 96 1018.8
20260902060525 64 204 0.0 0.0 0.00 0.01 0.00 96 1018.8
20260902060033 64 204 0.0 0.0 0.00 0.01 0.00 96 1018.7
20260902055524 64 204 0.0 0.0 0.00 0.01 0.00 96 1018.8
20260902055024 64 204 0.0 0.0 0.00 0.01 0.00 96 1018.7
20260902054539 64 204 0.0 0.0 0.00 0.01 0.00 96 1018.7
20260902054023 64 204 0.0 0.0 0.00 0.01 0.00 96 1018.6
20260902053523 64 204 0.0 0.0 0.00 0.01 0.00 96 1018.5
20260902053023 64 204 0.0 0.0 0.00 0.01 0.00 96 1018.7
20260902052521 65 204 0.0 0.0 0.00 0.01 0.00 96 1018.7
20260902052022 65 204 0.0 0.0 0.00 0.01 0.00 96 1018.6
20260902051521 65 204 0.0 0.0 0.00 0.01 0.00 96 1018.5
20260902051019 65 204 0.0 0.0 0.00 0.01 0.00 96 1018.6
20260902050519 65 204 0.0 0.0 0.00 0.01 0.00 96 1018.6
20260902050019 65 204 0.0 0.0 0.00 0.01 0.00 95 1018.6
20260902045518 65 204 0.0 0.0 0.00 0.01 0.00 95 1018.5
20260902045019 65 204 0.0 0.0 0.00 0.01 0.00 95 1018.4
20260902044518 65 204 0.0 0.0 0.00 0.01 0.00 95 1018.6
20260902044017 65 204 0.0 0.0 0.00 0.01 0.00 95 1018.6
20260902043515 65 204 0.0 0.0 0.00 0.01 0.00 95 1018.6
20260902043017 65 204 0.0 0.0 0.00 0.01 0.00 95 1018.6
20260902042516 65 204 0.0 0.0 0.00 0.01 0.00 95 1018.7
20260902042015 66 204 0.0 0.0 0.00 0.01 0.00 95 1018.6
20260902041513 66 204 0.0 0.0 0.00 0.01 0.00 95 1018.6
20260902041014 66 204 0.0 0.0 0.00 0.01 0.00 95 1018.4
20260902040511 66 204 0.0 0.0 0.00 0.01 0.00 95 1018.6
20260902040010 66 204 0.0 0.0 0.00 0.01 0.00 95 1018.6
20260902035510 66 204 0.0 0.0 0.00 0.01 0.01 95 1018.5
20260902035014 66 204 0.0 0.0 0.00 0.01 0.01 95 1018.6
20260902034510 66 204 0.0 0.0 0.00 0.01 0.01 95 1018.5
20260902034010 66 204 0.0 0.0 0.00 0.01 0.01 95 1018.6
20260902033509 66 204 0.0 0.0 0.00 0.01 0.01 95 1018.5
20260902033012 66 204 0.0 0.0 0.00 0.01 0.01 95 1018.6
20260902032512 66 204 0.0 0.0 0.00 0.01 0.01 95 1018.5
20260902032009 66 108 0.0 0.0 0.00 0.01 0.01 95 1018.6
20260902031509 66 108 0.0 0.0 0.00 0.01 0.01 94 1018.6
20260902031008 67 108 0.0 0.0 0.00 0.01 0.01 94 1018.8
20260902030508 67 108 0.0 0.0 0.00 0.01 0.01 94 1018.7
20260902030008 67 108 0.0 0.0 0.00 0.01 0.01 94 1018.7
20260902025508 67 108 0.0 0.0 0.00 0.01 0.01 94 1018.7
20260902025008 67 108 0.0 0.0 0.00 0.01 0.01 94 1018.6
20260902024507 67 108 0.0 0.0 0.00 0.01 0.01 94 1018.7
20260902024009 67 108 0.0 0.0 0.00 0.01 0.01 93 1018.6
20260902023509 67 108 0.0 0.0 0.00 0.01 0.01 93 1018.6
20260902023007 68 108 0.0 0.0 0.00 0.01 0.01 93 1018.6
20260902022507 68 108 0.0 0.0 0.00 0.01 0.01 93 1018.5
20260902022006 68 108 0.0 0.0 0.00 0.01 0.01 93 1018.5
20260902021514 68 108 0.0 0.0 0.00 0.01 0.01 93 1018.4
20260902021005 68 108 0.0 0.0 0.00 0.01 0.01 93 1018.3
20260902020505 69 109 0.0 0.9 0.00 0.01 0.01 93 1018.2
20260902020003 69 108 0.0 0.9 0.00 0.01 0.01 93 1018.2
20260902015503 69 134 0.0 0.9 0.00 0.01 0.01 93 1018.3
20260902015003 69 109 0.0 0.9 0.00 0.01 0.01 92 1018.2
20260902014507 69 109 0.0 0.0 0.00 0.01 0.01 92 1018.1
20260902014003 69 109 0.0 0.0 0.00 0.01 0.01 92 1018.1
20260902013503 69 109 0.0 0.0 0.00 0.01 0.01 92 1018.0
20260902013003 69 109 0.0 0.0 0.00 0.01 0.01 92 1018.0
20260902012502 70 109 0.0 0.9 0.00 0.01 0.01 91 1017.9
20260902012002 70 109 0.0 0.9 0.00 0.01 0.01 91 1018.1
20260902011502 70 109 0.0 0.0 0.00 0.01 0.01 91 1018.2
20260902011001 70 5 0.0 0.0 0.00 0.01 0.01 90 1017.9
20260902010502 70 5 0.0 0.0 0.00 0.01 0.01 90 1017.9
20260902010001 71 6 0.0 0.0 0.00 0.01 0.01 90 1017.8
20260902005502 71 6 0.0 0.0 0.00 0.01 0.01 89 1017.7
20260902005001 71 5 0.0 0.0 0.00 0.01 0.01 89 1017.7
20260902004503 71 6 0.0 0.0 0.00 0.01 0.01 89 1017.6
20260902004100 72 6 0.0 0.0 0.00 0.01 0.01 88 1017.4
20260902003559 72 6 0.0 0.0 0.00 0.01 0.01 88 1017.3
20260902003100 72 6 0.0 0.0 0.00 0.01 0.01 87 1017.4
20260902002559 73 6 0.0 0.0 0.00 0.01 0.01 86 1017.4
20260902002059 73 6 0.0 0.0 0.00 0.01 0.01 85 1017.5
20260902001558 74 5 0.0 0.0 0.00 0.01 0.01 84 1017.6
20260902001102 74 6 0.0 0.0 0.00 0.01 0.01 83 1017.6
20260902000557 75 6 0.0 0.0 0.00 0.01 0.01 83 1017.6
20260902000057 75 5 0.0 0.0 0.00 0.01 0.01 81 1017.7
20260901235601 76 6 0.0 0.0 0.00 0.01 0.01 80 1017.7
20260901235057 77 6 0.0 0.0 0.00 0.01 0.01 79 1017.7
20260901234606 77 5 0.0 0.0 0.00 0.01 0.01 77 1017.7
20260901234057 78 6 0.0 0.0 0.00 0.01 0.01 77 1017.7
20260901233557 78 6 0.0 0.0 0.00 0.01 0.01 76 1017.8
20260901233103 78 6 0.0 0.0 0.00 0.01 0.01 75 1017.8
20260901232559 79 6 0.0 0.0 0.00 0.01 0.01 75 1017.9
20260901232056 79 6 0.0 0.9 0.00 0.01 0.01 73 1017.7
20260901231559 79 6 0.0 0.9 0.00 0.01 0.01 72 1017.7
20260901231055 79 5 0.0 1.7 0.00 0.01 0.01 69 1017.8
20260901230555 79 19 0.0 1.7 0.00 0.01 0.01 69 1017.9
20260901230057 80 335 0.0 1.7 0.00 0.01 0.01 69 1018.0
20260901225556 80 4 0.0 2.6 0.00 0.02 0.01 68 1017.9
20260901225055 80 346 0.0 3.5 0.00 0.02 0.01 68 1017.9
20260901224557 80 349 0.9 3.5 0.00 0.02 0.01 67 1017.9
20260901224055 80 18 0.0 2.6 0.00 0.02 0.01 68 1017.9
20260901223555 80 39 0.0 3.5 0.00 0.02 0.01 67 1017.8
20260901223055 80 349 0.9 4.3 0.00 0.02 0.01 66 1017.8
20260901222555 81 23 0.9 2.6 0.00 0.02 0.01 65 1017.8
20260901222054 81 19 0.0 4.3 0.00 0.02 0.01 66 1017.8
20260901221617 82 335 0.9 4.3 0.00 0.02 0.01 64 1017.7
20260901221054 82 15 0.9 3.5 0.00 0.02 0.01 63 1017.7
20260901220553 83 11 0.0 4.3 0.00 0.02 0.01 64 1017.7
20260901220100 83 18 0.9 4.3 0.00 0.02 0.01 61 1017.7
20260901215552 83 354 0.0 0.9 0.00 0.02 0.01 66 1017.7
20260901215057 82 354 0.0 5.2 0.00 0.02 0.01 65 1017.7
20260901214551 82 354 0.9 5.2 0.00 0.02 0.01 63 1017.8
20260901214050 82 347 0.0 6.1 0.00 0.02 0.01 62 1017.8
20260901213551 82 306 2.6 6.1 0.00 0.02 0.01 59 1017.8
20260901213107 82 350 0.9 4.3 0.00 0.02 0.01 59 1017.9
20260901212551 82 19 1.7 4.3 0.00 0.02 0.01 58 1017.8
20260901212050 82 9 0.0 4.3 0.00 0.02 0.01 58 1017.8
20260901211553 83 37 0.0 5.2 0.00 0.02 0.01 58 1017.9
20260901211049 83 20 0.9 3.5 0.00 0.02 0.01 58 1018.0
20260901210548 83 246 0.0 3.5 0.00 0.02 0.01 58 1018.0
20260901210048 83 5 0.9 7.8 0.00 0.02 0.01 59 1018.1
20260901205550 83 349 2.6 7.8 0.00 0.02 0.01 58 1018.2
20260901205049 83 22 1.7 6.1 0.00 0.02 0.01 55 1018.1
20260901204548 84 4 0.0 4.3 0.00 0.02 0.01 57 1018.1
20260901204051 84 347 0.0 3.5 0.00 0.02 0.01 59 1018.1
20260901203547 83 231 0.0 3.5 0.00 0.02 0.01 59 1018.2
20260901203058 84 350 0.0 3.5 0.00 0.02 0.01 59 1018.1
20260901202545 84 20 0.0 4.3 0.00 0.02 0.01 58 1018.0
20260901202044 84 327 0.9 4.3 0.00 0.02 0.01 56 1018.2
20260901201545 84 225 0.9 3.5 0.00 0.02 0.01 56 1018.2
20260901201044 83 341 0.0 4.3 0.00 0.02 0.01 58 1018.2
20260901200543 83 11 1.7 5.2 0.00 0.02 0.01 56 1018.3
20260901200051 83 356 0.0 5.2 0.00 0.02 0.01 56 1018.3
20260901195547 84 340 1.7 5.2 0.00 0.02 0.01 55 1018.3
20260901195042 83 26 0.0 3.5 0.00 0.02 0.01 57 1018.4
20260901194542 82 342 0.0 6.1 0.00 0.02 0.01 59 1018.4
20260901194041 82 337 2.6 6.1 0.00 0.02 0.01 59 1018.5
20260901193540 82 33 1.7 7.0 0.00 0.02 0.01 59 1018.5
20260901193056 82 23 2.6 7.0 0.00 0.02 0.01 59 1018.5
20260901192543 82 16 1.7 7.0 0.00 0.02 0.01 58 1018.6
20260901192039 82 345 2.6 6.1 0.00 0.02 0.01 58 1018.7
20260901191538 82 91 0.0 7.8 0.00 0.02 0.01 61 1018.6
20260901191036 82 290 2.6 7.8 0.00 0.02 0.01 60 1018.7
20260901190541 82 349 1.7 7.0 0.00 0.02 0.01 60 1018.7
20260901190037 82 330 2.6 7.8 0.00 0.02 0.01 58 1018.7
20260901185537 83 27 3.5 7.0 0.00 0.02 0.01 59 1018.7
20260901185037 83 338 0.9 7.8 0.00 0.02 0.01 58 1018.8
20260901184539 83 7 2.6 7.8 0.00 0.02 0.01 56 1018.8
20260901184036 84 359 0.9 6.1 0.00 0.02 0.01 58 1018.8
20260901183535 84 197 0.9 6.1 0.00 0.02 0.01 59 1018.8
20260901183035 83 87 0.0 5.2 0.00 0.02 0.01 60 1018.8
20260901182534 83 350 0.9 6.1 0.00 0.02 0.01 58 1018.8
20260901182034 83 5 0.0 0.9 0.00 0.02 0.01 62 1018.9
20260901181537 82 1 0.0 2.6 0.00 0.02 0.01 63 1018.8
20260901181033 82 1 0.9 2.6 0.00 0.02 0.01 59 1018.9
20260901180534 83 18 0.0 7.0 0.00 0.02 0.01 60 1018.9
20260901180033 84 29 1.7 7.0 0.00 0.02 0.01 57 1018.8
20260901175531 84 351 0.9 5.2 0.00 0.02 0.01 56 1018.8
20260901175032 84 214 0.0 3.5 0.00 0.02 0.01 58 1018.9
20260901174532 84 1 0.0 4.3 0.00 0.02 0.01 60 1018.9
20260901174031 83 86 0.0 5.2 0.00 0.02 0.01 60 1019.0
20260901173528 83 343 1.7 5.2 0.00 0.02 0.01 57 1019.1
20260901173027 83 284 0.0 5.2 0.00 0.02 0.01 60 1019.0
20260901172526 82 4 1.7 5.2 0.00 0.02 0.01 60 1019.2
20260901172026 82 345 0.9 3.5 0.00 0.02 0.01 61 1019.2
20260901171529 81 20 0.0 7.8 0.00 0.02 0.01 63 1019.3
20260901171025 81 337 3.5 8.7 0.00 0.02 0.01 62 1019.2
20260901170526 81 350 5.2 8.7 0.00 0.02 0.01 61 1019.3
20260901170025 81 53 3.5 8.7 0.00 0.02 0.01 60 1019.3
20260901165524 81 27 3.5 9.6 0.00 0.02 0.01 61 1019.4
20260901165026 81 318 3.5 9.6 0.00 0.02 0.01 60 1019.5
20260901164525 82 38 2.6 7.0 0.00 0.02 0.01 60 1019.5
20260901164024 83 340 0.9 6.1 0.00 0.02 0.01 59 1019.5
20260901163522 82 335 0.0 3.5 0.00 0.02 0.01 64 1019.6
20260901163022 81 340 0.9 4.3 0.00 0.02 0.01 65 1019.6
20260901162522 81 360 1.7 6.1 0.00 0.02 0.01 63 1019.6
20260901162021 80 332 0.0 6.1 0.00 0.02 0.01 66 1019.6
20260901161521 79 273 1.7 6.1 0.00 0.02 0.01 65 1019.7
20260901161020 79 22 2.6 7.8 0.00 0.02 0.01 64 1019.7
20260901160522 79 36 2.6 7.8 0.00 0.02 0.01 64 1019.8
20260901160023 80 342 2.6 7.8 0.00 0.02 0.01 65 1019.9
20260901155519 80 354 1.7 4.3 0.00 0.02 0.01 64 1019.8
20260901155020 80 335 1.7 5.2 0.00 0.02 0.01 67 1019.8
20260901154519 79 344 0.9 7.0 0.00 0.02 0.01 67 1019.8
20260901154022 80 6 1.7 7.0 0.00 0.02 0.01 65 1019.8
20260901153519 81 233 0.9 4.3 0.00 0.02 0.01 65 1019.8
20260901153021 81 305 1.7 4.3 0.00 0.02 0.01 66 1019.8
20260901152517 81 344 0.0 1.7 0.00 0.02 0.01 70 1019.8
20260901152019 80 255 0.0 2.6 0.00 0.02 0.01 69 1019.8
20260901151518 79 353 0.9 2.6 0.00 0.02 0.01 70 1019.9
20260901151016 79 346 0.0 2.6 0.00 0.02 0.01 71 1019.9
20260901150517 80 39 0.0 2.6 0.00 0.02 0.01 70 1019.9
20260901150016 81 352 0.9 4.3 0.00 0.02 0.01 68 1019.9
20260901145516 81 10 0.0 4.3 0.00 0.02 0.01 70 1020.0
20260901145016 82 18 0.9 3.5 0.00 0.02 0.01 69 1020.1
20260901144516 81 105 0.0 4.3 0.00 0.02 0.01 71 1020.1
20260901144015 81 347 0.9 4.3 0.00 0.02 0.01 70 1020.3
20260901143515 81 360 0.0 0.9 0.00 0.02 0.01 69 1020.1
20260901143015 81 359 0.0 2.6 0.00 0.02 0.01 69 1020.2
20260901142515 82 359 0.0 1.7 0.00 0.02 0.01 68 1020.2
20260901142114 83 214 0.0 0.0 0.00 0.02 0.01 67 1020.2
20260901141512 82 214 0.0 0.0 0.00 0.02 0.01 70 1020.2
20260901141012 82 214 0.0 0.0 0.00 0.02 0.01 68 1020.2
20260901140510 81 214 0.0 0.0 0.00 0.02 0.01 71 1020.0
20260901140013 80 214 0.0 0.0 0.00 0.02 0.01 72 1020.0
20260901135511 79 214 0.0 0.0 0.00 0.03 0.01 73 1020.1
20260901135006 78 214 0.0 0.0 0.00 0.03 0.01 77 1020.1
20260901134507 77 214 0.0 0.0 0.00 0.03 0.01 80 1020.2
20260901134005 75 214 0.0 0.0 0.00 0.03 0.01 84 1020.3
20260901133502 74 214 0.0 0.0 0.00 0.03 0.01 87 1020.3
20260901133104 73 214 0.0 0.0 0.00 0.03 0.01 88 1020.3
20260901132559 73 214 0.0 0.0 0.00 0.03 0.01 90 1020.3
20260901132057 72 214 0.0 0.0 0.00 0.03 0.01 93 1020.2
20260901131603 70 214 0.0 0.0 0.00 0.03 0.01 95 1020.3
20260901131054 70 214 0.0 0.0 0.00 0.03 0.01 96 1020.3
20260901130556 69 214 0.0 0.0 0.00 0.03 0.01 96 1020.3
20260901130052 68 214 0.0 0.0 0.00 0.03 0.01 96 1020.3
20260901125552 68 214 0.0 0.0 0.00 0.03 0.01 96 1020.4
20260901125050 68 214 0.0 0.0 0.00 0.03 0.01 96 1020.4
20260901124549 67 214 0.0 0.0 0.00 0.03 0.01 96 1020.4
20260901124047 66 214 0.0 0.0 0.00 0.03 0.01 96 1020.4
20260901123547 66 214 0.0 0.0 0.00 0.03 0.01 96 1020.4
20260901123047 64 214 0.0 0.0 0.00 0.03 0.01 96 1020.4
20260901122545 64 214 0.0 0.0 0.00 0.03 0.01 96 1020.3
20260901122044 62 214 0.0 0.0 0.00 0.03 0.01 96 1020.3
20260901121547 61 214 0.0 0.0 0.00 0.03 0.01 96 1020.3
20260901121042 61 214 0.0 0.0 0.00 0.03 0.01 96 1020.3
20260901120541 61 214 0.0 0.0 0.00 0.03 0.01 96 1020.3
20260901120045 60 214 0.0 0.0 0.00 0.03 0.01 96 1020.1
20260901115541 60 214 0.0 0.0 0.00 0.03 0.01 96 1020.1
20260901115041 60 214 0.0 0.0 0.00 0.03 0.01 96 1020.1
20260901114544 60 214 0.0 0.0 0.00 0.03 0.01 96 1020.0
20260901114042 60 214 0.0 0.0 0.00 0.03 0.01 96 1019.9
20260901113544 60 214 0.0 0.0 0.00 0.03 0.01 96 1019.8
20260901113043 60 214 0.0 0.0 0.00 0.03 0.01 96 1019.8
20260901112540 59 214 0.0 0.0 0.00 0.03 0.01 96 1019.7
20260901112043 59 214 0.0 0.0 0.00 0.03 0.01 96 1019.6
20260901111539 59 214 0.0 0.0 0.00 0.03 0.01 96 1019.5
20260901111038 59 214 0.0 0.0 0.00 0.03 0.01 96 1019.5
20260901110541 59 214 0.0 0.0 0.00 0.03 0.01 96 1019.5
20260901110037 60 214 0.0 0.0 0.00 0.03 0.01 96 1019.4
20260901105538 60 214 0.0 0.0 0.00 0.03 0.01 96 1019.4
20260901105041 60 214 0.0 0.0 0.00 0.03 0.01 96 1019.3
20260901104537 60 214 0.0 0.0 0.00 0.03 0.01 96 1019.3
20260901104037 60 214 0.0 0.0 0.00 0.03 0.01 96 1019.3
20260901103537 60 214 0.0 0.0 0.00 0.03 0.01 96 1019.3
20260901103040 60 214 0.0 0.0 0.00 0.03 0.01 96 1019.2
20260901102536 60 214 0.0 0.0 0.00 0.03 0.01 96 1019.1
20260901102036 60 214 0.0 0.0 0.00 0.03 0.01 96 1019.0
20260901101536 60 214 0.0 0.0 0.00 0.03 0.01 96 1019.0
20260901101036 60 214 0.0 0.0 0.00 0.03 0.01 96 1019.0
20260901100535 60 214 0.0 0.0 0.00 0.03 0.01 96 1019.1
20260901100035 60 214 0.0 0.0 0.00 0.03 0.01 96 1019.0
20260901095535 60 214 0.0 0.0 0.00 0.03 0.01 96 1019.1
20260901095035 60 214 0.0 0.0 0.00 0.03 0.01 96 1019.0
20260901094535 60 214 0.0 0.0 0.00 0.03 0.01 96 1019.0
20260901094036 60 214 0.0 0.0 0.00 0.03 0.01 96 1019.0
20260901093536 60 214 0.0 0.0 0.00 0.03 0.01 96 1019.1
20260901093034 61 214 0.0 0.0 0.00 0.03 0.01 96 1019.1
20260901092532 61 214 0.0 0.0 0.00 0.03 0.01 96 1019.0
20260901092032 61 214 0.0 0.0 0.00 0.03 0.01 96 1019.0
20260901091532 61 214 0.0 0.0 0.00 0.03 0.01 96 1019.0
20260901091035 61 214 0.0 0.0 0.01 0.03 0.01 96 1019.1
20260901090531 61 214 0.0 0.0 0.01 0.03 0.01 96 1019.0
20260901090031 61 214 0.0 0.0 0.01 0.03 0.01 96 1019.0
20260901085531 61 214 0.0 0.0 0.01 0.03 0.01 96 1019.1
20260901085031 61 214 0.0 0.0 0.01 0.03 0.01 96 1019.0
20260901084531 61 214 0.0 0.0 0.01 0.03 0.01 96 1019.0
20260901084033 61 214 0.0 0.0 0.01 0.03 0.01 96 1019.0
20260901083530 61 214 0.0 0.0 0.01 0.03 0.01 96 1019.0
20260901083029 61 214 0.0 0.0 0.01 0.03 0.01 96 1019.0
20260901082528 61 214 0.0 0.0 0.01 0.03 0.01 96 1019.0
20260901082028 61 214 0.0 0.0 0.01 0.03 0.01 96 1018.9
20260901081528 61 214 0.0 0.0 0.01 0.03 0.01 96 1019.0
20260901081027 61 214 0.0 0.0 0.00 0.02 0.00 96 1019.0
20260901080526 61 214 0.0 0.0 0.00 0.02 0.00 96 1019.0
20260901080026 61 214 0.0 0.0 0.00 0.02 0.00 96 1019.1
20260901075525 62 214 0.0 0.0 0.00 0.02 0.00 96 1019.2
20260901075024 62 214 0.0 0.0 0.00 0.02 0.00 96 1019.2
20260901074525 62 214 0.0 0.0 0.00 0.02 0.00 96 1019.2
20260901074024 62 214 0.0 0.0 0.00 0.02 0.00 96 1019.2
20260901073523 62 214 0.0 0.0 0.00 0.02 0.00 96 1019.2
20260901073024 62 214 0.0 0.0 0.00 0.02 0.00 96 1019.2
20260901072526 62 214 0.0 0.0 0.00 0.02 0.00 96 1019.4
20260901072024 62 214 0.0 0.0 0.00 0.02 0.00 96 1019.4
20260901071523 62 214 0.0 0.0 0.00 0.02 0.00 96 1019.4
20260901071022 62 214 0.0 0.0 0.00 0.02 0.00 96 1019.4
20260901070520 62 214 0.0 0.0 0.00 0.02 0.00 96 1019.4